Weather History for 76405 - March, 2014

Change the Weather History Date:

Sunday, March 9, 2014

  Actual Average Record
Temperature  
Mean Temperature 70 °F -  
Max Temperature 81 °F 82 °F - ()
Min Temperature 60 °F 55 °F - ()
Cooling Degree Days 6    
Growing Degree Days 20 (Base 50)    
Moisture  
Dew Point 55 °F    
Average Humidity 58    
Maximum Humidity 82    
Minimum Humidity 33    
Precipitation  
Precipitation 0.00 in - - ()
Sea Level Pressure  
Sea Level Pressure 30.00 in    
Wind  
Wind Speed 6 mph ()    
Max Wind Speed 14 mph    
Max Gust Speed -    
Visibility 9.9 miles    
Events      
T = Trace of Precipitation, MM = Missing Value Source: Averaged Metar Reports

Daily Weather History Graph

Daily Weather History Graph

Search for Another Location

Airport or City:

Trip Planner

Search our weather history database for the weather conditions in past years. The results will help you decide how hot, cold, wet, or windy it might be!

Date:

Astronomy

Mar. 09, 2014 Rise Set
Actual Time 6:35 AM MST 6:27 PM MST
Civil Twilight 6:13 AM MST 6:50 PM MST
Nautical Twilight 5:47 AM MST 7:16 PM MST
Astronomical Twilight 5:20 AM MST 7:43 PM MST
Moon 12:49 PM MST (3/9) 1:37 AM MST (3/9)
Length of Visible Light 12h 37m
Length of Day
11h 51m
First Quarter, 62% of the Moon is Illuminated
Mar 9
First Quarter
Mar 16
Full
Mar 23
Last Quarter
Mar 30
New
Apr 7
First Quarter

Hourly Weather History & Observations

Time (MST) Temp. Dew Point Humidity Pressure Visibility Wind Dir Wind Speed Gust Speed Precip Events Conditions
1:50 AM 63 °F 56 °F 70% 29.99 in 2 mi SE 6.7 mph - -  
4:50 AM 63 °F 57 °F 74% 29.98 in 2 mi SE 4.5 mph - -   Mostly Cloudy
5:40 AM 57.2 °F 51.8 °F 82% 30.00 in 10.0 mi South 6.9 mph - N/A   Scattered Clouds
7:42 AM 60.8 °F 53.6 °F 77% 30.03 in 10.0 mi South 5.8 mph - N/A   Partly Cloudy
7:50 AM 66 °F 57 °F 66% 30.01 in 12 mi SE 4.5 mph - -   Scattered Clouds
8:40 AM 66.2 °F 55.4 °F 68% 30.03 in 10.0 mi South 10.4 mph - N/A   Scattered Clouds
9:40 AM 69.8 °F 57.2 °F 64% 30.03 in 10.0 mi SW 5.8 mph - N/A   Scattered Clouds
10:42 AM 73.4 °F 55.4 °F 53% 30.02 in 10.0 mi SSW 6.9 mph - N/A   Scattered Clouds
10:50 AM 78 °F 58 °F 39% 30.01 in 19 mi South 6.7 mph - -   Scattered Clouds
11:40 AM 75.2 °F 53.6 °F 47% 30.01 in 10.0 mi SW 13.8 mph - N/A   Scattered Clouds
12:41 PM 77.0 °F 53.6 °F 44% 29.97 in 10.0 mi SSW 9.2 mph - N/A   Mostly Cloudy
1:40 PM 77.0 °F 51.8 °F 41% 29.95 in 10.0 mi South 10.4 mph - N/A   Mostly Cloudy
1:50 PM 81 °F 56 °F 33% 29.94 in 19 mi South 6.7 mph - -   Partly Cloudy
2:40 PM 78.8 °F 51.8 °F 39% 29.92 in 10.0 mi SSW 11.5 mph - N/A   Mostly Cloudy
3:48 PM 75.2 °F 53.6 °F 47% 29.93 in 10.0 mi WSW 11.5 mph - N/A   Mostly Cloudy
4:40 PM 76 °F 55 °F 38% 29.95 in 19 mi WSW 8.9 mph - -   Partly Cloudy
4:50 PM 73.4 °F 53.6 °F 50% 29.94 in 10.0 mi SW 13.8 mph - N/A   Mostly Cloudy
5:58 PM 71.6 °F 53.6 °F 53% 29.97 in 10.0 mi WSW 9.2 mph - N/A   Mostly Cloudy
6:42 PM 68.0 °F 59.0 °F 73% 29.99 in 10.0 mi NW 9.2 mph - N/A   Mostly Cloudy
7:40 PM 68 °F 63 °F 79% 30.02 in 2 mi West 2.2 mph - -   Mostly Cloudy
7:54 PM 68.0 °F 59.0 °F 73% 30.01 in 10.0 mi Calm Calm - N/A   Mostly Cloudy
8:47 PM 68.0 °F 53.6 °F 60% 30.04 in 10.0 mi Calm Calm - N/A   Mostly Cloudy
9:46 PM 66.2 °F 53.6 °F 64% 30.06 in 10.0 mi Calm Calm - N/A   Scattered Clouds
10:42 PM 66.2 °F 53.6 °F 64% 30.06 in 10.0 mi South 6.9 mph - N/A   Scattered Clouds
10:45 PM 68 °F 56 °F 58% 30.02 in 2 mi South 4.5 mph - -   Partly Cloudy